This demonstration page uses our WeatherBlox Daily Observations layout. Learn more.

Left ArrowRight Arrow

53.62937, 11.41316

Hourly Observations for June 27, 2017

Temp ( °F °C ) Dew Point ( °F °C ) Humidity (%) Winds ( mph kmh ) Pressure ( in mb ) Visibility ( mi km ) Precip ( " mm )
6:20 am 06:20 Mostly Sunny 46 8 46 8 100 100 VRB 1 2 29.94 1014 7 11 N/A
6:50 am 06:50 Mostly Sunny 50 10 50 10 100 100 VRB 2 4 29.94 1014 7 11 N/A
7:20 am 07:20 Mostly Sunny 52 11 48 9 88 88 WSW 5 7 29.94 1014 7 11 N/A
7:50 am 07:50 Mostly Sunny 54 12 50 10 88 88 VRB 2 4 29.94 1014 7 11 N/A
8:20 am 08:20 Mostly Sunny 55 13 50 10 82 82 VRB 2 4 29.94 1014 7 11 N/A
8:50 am 08:50 Mostly Sunny 57 14 48 9 72 72 VRB 3 6 29.94 1014 7 11 N/A
9:20 am 09:20 Mostly Sunny 59 15 50 10 72 72 VRB 2 4 29.94 1014 7 11 N/A
9:50 am 09:50 Partly Cloudy 61 16 50 10 68 68 VRB 3 6 29.94 1014 30 48 N/A
10:20 am 10:20 Partly Cloudy 61 16 48 9 63 63 VRB 3 6 29.94 1014 30 48 N/A
10:50 am 10:50 Mostly Sunny 63 17 48 9 59 59 WSW 3 6 29.94 1014 30 48 N/A
11:20 am 11:20 Partly Cloudy 61 16 46 8 59 59 VRB 5 7 29.91 1013 30 48 N/A
11:50 am 11:50 Partly Cloudy 63 17 46 8 56 56 VRB 3 6 29.91 1013 30 48 N/A
12:20 pm 12:20 Mostly Cloudy 63 17 48 9 59 59 VRB 3 6 29.91 1013 30 48 N/A
12:50 pm 12:50 Mostly Cloudy 64 18 48 9 56 56 SW 7 11 29.91 1013 30 48 N/A
1:20 pm 13:20 Mostly Sunny 64 18 48 9 56 56 SSW 8 13 29.91 1013 7 11 N/A
1:50 pm 13:50 Mostly Sunny 64 18 48 9 56 56 WSW 7 11 29.91 1013 7 11 N/A
2:20 pm 14:20 Mostly Sunny 64 18 50 10 60 60 VRB 6 9 29.91 1013 7 11 N/A
2:50 pm 14:50 Partly Cloudy 68 20 50 10 53 53 VRB 2 4 29.88 1012 30 48 N/A
3:20 pm 15:20 Partly Cloudy 68 20 48 9 49 49 S 5 7 29.88 1012 30 48 N/A
3:50 pm 15:50 Mostly Sunny 68 20 50 10 53 53 VRB 5 7 29.88 1012 7 11 N/A
4:20 pm 16:20 Mostly Sunny 66 19 50 10 56 56 S 5 7 29.85 1011 7 11 N/A
4:50 pm 16:50 Mostly Sunny 68 20 50 10 53 53 S 3 6 29.85 1011 30 48 N/A
5:20 pm 17:20 Mostly Sunny 68 20 48 9 49 49 VRB 2 4 29.85 1011 30 48 N/A
5:50 pm 17:50 Mostly Sunny 68 20 48 9 49 49 E 6 9 29.85 1011 7 11 N/A

Powered by AerisWeather